Weather in Nephtekamsk

Russia / Republic of Bashkortostan     56°05′18″N   54°14′53″E
temp.,
°C
wind,
m/s
gust,
m/s
humid.,
%
clouds,
%
prec.,
mm/h
press.,
hPa
HPBL,
m
3 march, wed
wed323:000wsw61192100 1.8 997587
02:00−3wsw5119697 0.1 997396
05:00−3wsw599596 0.3 998438
08:00−5wsw479699 0.4 998225
11:00−4wsw469699 0.8 999280
14:00−3wsw469698 0.1 999342
17:00−2sw479598 0.5 999491
20:00−4sw4109597 0.2 999284
4 march, thu
thu423:00−5nw7129598 0.8 1000596
02:00−10wnw5119396 0.4 1000286
05:00−12w499683 0.4 1001190
08:00−13sw489778 0.0 1001144
11:00−8sw6109489 0.5 1000523
14:00−5sw61092100 0.4 998651
17:00−4ssw71391100 0.5 996785
20:00−3ssw81496100 1.3 994856
5 march, fri
fri523:00−3w7168294 3.7 993653
02:00−7wsw513903 0.0 995376
05:00−8wsw4109546 0.0 998265
08:00−9wsw3797100 0.1 999144
11:00−7wsw3495100 0.1 1000201
14:00−5wsw2290100 0.0 1000356
17:00−4nnw2294100 0.2 1000228
20:00−6nw3695100 0.4 1000215
6 march, sat
sat623:00−11nw4109196 0.4 1005226
02:00−17wnw34960 0.0 100955
05:00−19w33980 0.0 101124
08:00−21w239926 0.0 101320
11:00−16wsw239326 0.0 1013175
14:00−13wsw228670 0.0 1012307
17:00−11sw228967 0.0 1011266
20:00−17ssw229618 0.0 101020
7 march, sun
sun723:00−18sw239829 0.0 101023
02:00−16sw349896 0.1 101080
05:00−17wsw339895 0.1 101175
08:00−19w229997 0.1 101121
11:00−16wsw239360 0.1 1012188
14:00−13sw458941 0.0 1012352
17:00−12ssw479154 0.0 1012466
20:00−15s489493 0.0 1011148